Tracking 19854 objects as of 22-Sep-2019
HD Live streaming from Space Station
objects crossing your sky now

FLOCK 3P 30

Track FLOCK 3P 30 now!
10-day predictions
FLOCK 3P 30 is classified as:


NORAD ID: 41987
Int'l Code: 2017-008AR
Perigee: 490.7 km
Apogee: 501.6 km
Inclination: 97.4 °
Period: 94.4 minutes
Semi major axis: 6867 km
RCS: Unknown
Launch date: February 15, 2017
Source: United States (US)
Launch site: SRIHARIKOTA (SRI)
aabbcc
Your satellite tracking list
Your tracking list is empty




NASA's NSSDC Master Catalog

Two Line Element Set (TLE):
1 41987U 17008AR  19265.10864733  .00001046  00000-0  44004-4 0  9997
2 41987  97.3997 331.2808 0007937 157.9802 202.1779 15.25584673144304
Source of the keplerian elements: AFSPC